"Pseudo-MPEC" for P11C4Q3

Created 2022 Nov 25 13:22:19 UT using Find_Orb

Click here for an explanation of pseudo-MPECs

 
 Astrometry: 
     P11C4Q3* C2022 11 24DYHWN[hxOV=6^OhX8w$LgR2P1_ryB=3jta%_/LVEd`3Bx+?W`TjjF51
     P11C4Q3  C2022 11 24@`*8`/MJ]4PSN_%^^iDrfBW_E5SYjMAstrometry?tfYTO,%3uUfF51
     P11C4Q3  C2022 11 24InFaRi,$UN\oMKo[*_.#4N]h$CGkV1A$1)1!i50=K%EPtZZ4h^quF51
     P11C4Q3  C2022 11 24Dul@7QX'=;8*'(-bG]6'r$I0@+%o#q5:sAMT8hlVst8u'vdkW\oZF51
     P11C4Q3  C2022 11 24Fv!Q!JUL:Iy5vTM?F]ltuAUP=@ANV6.#fc.g4=m(Am==!j6!M(PIF51
     P11C4Q3 hC2022 11 24+R@%MH\19*t!Lb??j`faWAQnCXvs[$g@*;i@Y3=N4ik-c[G)C%KNL01
     P11C4Q3 hC2022 11 24MH-#AB#ycx]XAWkuD/I3R:@;PhEMGJUNrb+m^/lHa*(;r#`[s3u9L01
     P11C4Q3 hC2022 11 24OK[NR\x-dJJp=.Yc0@m7/cYID_B1Z[`_qh7-@yrjIh-1GqBA3C'PL01
     P11C4Q3 hC2022 11 24Pt;r+P.FiYh[f/Z8y]-n'XjHP#EX-!.[q[A!igjHUKh_'Ba%kC7[L01
     P11C4Q3 KC2022 11 24Eg9kEFF.(=iI2jc4y4N]6pEo;B,wgMj2M6Y[rP$AI6e2Je](dMyc104
     P11C4Q3 KC2022 11 24B:+(kLU[_(LrcDA@KW+7'JlbatL4M5VBt^gF:#+vOW:MZ[m_9SQt104
     P11C4Q3 KC2022 11 24Ww\?qbSywduKHbreWm:5-BIhi.[B_0T\FM./a`D\2GD*cdaVXP=y958
     P11C4Q3 KC2022 11 24,jbgfGQ@^xmF-N-mrC%?gc]QKm0U1dU=Tq^Aj;Vh/Vu7=B/`H)(1958
     P11C4Q3 KC2022 11 24fY6YCFDb!;rT]jDS!2bWayO)b5Qk==1Q-ENSi6.+SZ_j%]Co_70^958
     P11C4Q3 2C2022 11 24f9!ElsXJI#y#l5eQhFj3KMVQvB,T/Ueyredacted;^;Z/d7bA]w-J04
     P11C4Q3 2C2022 11 245@SYS$a/click/]here%QDZ:xiYwEr8%[VpCRT@_i:lmJc#Y!\dEJ04
     P11C4Q3 2C2022 11 24Yw`lt+dfeyv[BNi=32WY5K)x(yd'x[:uu,IZKiEJf[G:Jd(]uarkJ04
     P11C4Q3 mC2022 11 25.16036802 55 41.243+29 23 47.54   ~BP4M 20.54GVNEOCPI52
     P11C4Q3 mC2022 11 25.16911802 55 51.884+29 24 28.48   ~BP4M 21.03GVNEOCPI52
     P11C4Q3 mC2022 11 25.16954202 55 52.439+29 24 30.64   ~BP4M 20.62GVNEOCPI52
     P11C4Q3 mC2022 11 25.16996702 55 52.936+29 24 31.82   ~BP4M 20.41GVNEOCPI52
     P11C4Q3 KC2022 11 25J\-J!h\(R1iUknEkreL?%P]a3YI_3n0pU4qDj-BIRc=wT6bZ/A1m734
     P11C4Q3 KC2022 11 25)D,^mHcU6ZSA4#9]U#U,WEn8Ti#!r![$_OX-84wMA$nU[.m6eHvB734
     P11C4Q3 KC2022 11 25mj4!3kW`m8dforRgC:17-explanation,oUbPcU@NWK$`9%t+\Zx734
     P11C4Q3 KC2022 11 25Ox*uxv`6)m+9U6dV+As0yYI$S.;g`DfE`aC7HYt;?3JUjh1uc^_b734

Station data:
(104) San Marcello Pistoiese  (N44.064178 E10.803750)  Italy.  Observers P.
   Bacci, M. Maestripieri. Measurers P. Bacci, L. Tesi, G. Fagioli. 0.60-m
   reflector + CCD.
(734) Farpoint Observatory, Eskridge  (N38.890104 W96.001400)  US/Kansas.
   Observer G. Hug. 0.69-m reflector + CCD.
(958) Observatoire de Dax  (N43.693324 W1.030390)  France.  Observer P.
   Dupouy. 0.32-m Schmidt-Cassegrain.
(F51) Pan-STARRS 1, Haleakala  (N20.707234 W156.255910)  US/Hawaii.
   Observers J. Bulger, T. Lowe, A. Schultz, M. Willman. Measurers K.
   Chambers, S. Chastel, T. de Boer, L. Denneau, J. Fairlamb, H. Flewelling,
   M. Huber, C.-C. Lin, E. Magnier, Y. Ramanjooloo, R. Wainscoat, R. Weryk.
   1.8-m Ritchey-Chrétien + CCD.
(I52) Steward Observatory, Mt. Lemmon Station  (N32.442544 W110.788920)
   US/Arizona.  Observers T. A. Pruyne, B. M. Africano, E. J. Christensen, G.
   A. Farneth, D. C. Fuls, A. R. Gibbs, A. D. Grauer, H. Gröller, J. A.
   Johnson, R. A. Kowalski, S. M. Larson, G. J. Leonard, D. Rankin, R. L.
   Seaman, F. C. Shelly, K. W. Wierzchoś. 1.0-m reflector + CCD.
(J04) ESA Optical Ground Station, Tenerife  (N28.300922 W16.511830)  Canary
   Islands (Spain).  Observer D. Abreu. Measurers M. Micheli, D. Koschny, E.
   Schwab, M. Busch, A. Knöfel. 1.0-m f/4.4 reflector + CCD.
(L01) Višnjan Observatory, Tičan  (N45.290897 E13.749300)  Croatia.
   Observers K. Korlević, D. Pujagic, V. Dobos. Measurers D. Pujagic, K.
   Korlević. 1.0-m f/2.9 reflector + CCD.

Orbital elements:  P11C4Q3
   Perihelion 2022 Oct 23.45367 +/- 0.0245 TT = 10:53:16 (JD 2459875.95367)
Epoch 2022 Nov 25.0 TT = JDT 2459908.5   Earth MOID: 0.0015   Ma: 0.0100
M  11.65211349 +/- 0.049            (J2000 ecliptic)          AutoNEOCP
n   0.35801615 +/- 0.00158          Peri.  331.58397 +/- 0.06
a   1.96426901 +/- 0.00577          Node    49.50794 +/- 0.016
e   0.5203440 +/- 0.00152           Incl.    2.30478 +/- 0.007
P   2.75                   H 26.3   G  0.15   U  8.4
q 0.94217337 +/- 0.000259    Q 2.98636466 +/- 0.0118
From 25 observations 2022 Nov. 24-25 (17.6 hr); mean residual 0".41
Residuals in arcseconds: 
221124 F51  .16+  .12+    221124 104  .47+  .41-    221125 I52  .05+  .09+    
221124 F51  .08-  .06+    221124 104  .29+  .07+    221125 I52  .59+  .29+    
221124 F51  .15-  .05+    221124 958  .92-  .81+    221125 I52  .35+  .50-    
221124 F51  .18+  .05+    221124 958  .76-  .83-    221125 734  .79-  1.1+    
221124 F51  .07-  .04+    221124 958  .73+  .00     221125 734  .07+  .22+    
221124 L01  .63-  .07+    221124 J04  .42+  .23-    221125 734  .35+  .18-    
221124 L01  .05-  .36+    221124 J04  .05+  .14-    221125 734  .70-  .32-    
221124 L01  .11+  .28-    221124 J04  .33+  .22-    
221124 L01  .10-  .13+    221125 I52  .13-  .11-    

Ephemerides (geocentric):
Date (UTC) HH   RA             Dec           delta  r     elong  mag " sig PA
---- --------  ------------   ------------  ------ ------ -----  --- --------
2022 11 25 13  03 03 27.085   +29 50 00.75  .04470 1.0302 163.7 20.5 .285  27
2022 11 25 14  03 04 16.736   +29 52 36.22  .04490 1.0304 163.8 20.5 .326  33
2022 11 25 15  03 05 05.996   +29 55 09.12  .04510 1.0306 163.9 20.5 .373  38
2022 11 25 16  03 05 54.868   +29 57 39.49  .04530 1.0308 164.0 20.5 .425  43
2022 11 25 17  03 06 43.355   +30 00 07.39  .04550 1.0310 164.1 20.5 .482  46
2022 11 25 18  03 07 31.461   +30 02 32.85  .04570 1.0312 164.2 20.5 .543  49
2022 11 25 19  03 08 19.190   +30 04 55.91  .04590 1.0314 164.3 20.5 .607  52
2022 11 25 20  03 09 06.543   +30 07 16.61  .04611 1.0316 164.4 20.5 .675  54
2022 11 25 21  03 09 53.525   +30 09 34.98  .04631 1.0318 164.5 20.5 .746  56
2022 11 25 22  03 10 40.139   +30 11 51.08  .04651 1.0320 164.6 20.5 .821  57
2022 11 25 23  03 11 26.388   +30 14 04.93  .04672 1.0322 164.7 20.5 .899  59
2022 11 26 00  03 12 12.274   +30 16 16.57  .04692 1.0324 164.7 20.5 .979  60
2022 11 26 01  03 12 57.802   +30 18 26.03  .04712 1.0326 164.8 20.5 1.06  61
2022 11 26 02  03 13 42.975   +30 20 33.36  .04733 1.0329 164.9 20.5 1.15  62
2022 11 26 03  03 14 27.795   +30 22 38.59  .04754 1.0331 165.0 20.6 1.24  63
2022 11 26 04  03 15 12.265   +30 24 41.76  .04774 1.0333 165.1 20.6 1.33  64
2022 11 26 05  03 15 56.389   +30 26 42.89  .04795 1.0335 165.2 20.6 1.42  65
2022 11 26 06  03 16 40.170   +30 28 42.02  .04815 1.0337 165.2 20.6 1.52  65
2022 11 26 07  03 17 23.611   +30 30 39.18  .04836 1.0339 165.3 20.6 1.61  66
2022 11 26 08  03 18 06.715   +30 32 34.41  .04857 1.0341 165.4 20.6 1.71  67
2022 11 26 09  03 18 49.485   +30 34 27.74  .04878 1.0343 165.5 20.6 1.82  67
2022 11 26 10  03 19 31.924   +30 36 19.19  .04899 1.0345 165.6 20.6 1.92  68
2022 11 26 11  03 20 14.034   +30 38 08.81  .04919 1.0347 165.6 20.6 2.02  68
2022 11 26 12  03 20 55.819   +30 39 56.61  .04940 1.0349 165.7 20.6 2.13  69
2022 11 26 13  03 21 37.282   +30 41 42.64  .04961 1.0352 165.8 20.6 2.24  69
2022 11 26 14  03 22 18.426   +30 43 26.91  .04982 1.0354 165.8 20.6 2.35  69
2022 11 26 15  03 22 59.254   +30 45 09.46  .05003 1.0356 165.9 20.6 2.46  70
2022 11 26 16  03 23 39.767   +30 46 50.32  .05024 1.0358 166.0 20.6 2.58  70
2022 11 26 17  03 24 19.971   +30 48 29.51  .05045 1.0360 166.0 20.7 2.69  71
2022 11 26 18  03 24 59.866   +30 50 07.06  .05067 1.0362 166.1 20.7 2.81  71
2022 11 26 19  03 25 39.456   +30 51 43.00  .05088 1.0364 166.2 20.7 2.93  71
2022 11 26 20  03 26 18.744   +30 53 17.35  .05109 1.0366 166.2 20.7 3.05  71
2022 11 26 21  03 26 57.732   +30 54 50.14  .05130 1.0368 166.3 20.7 3.17  72
2022 11 26 22  03 27 36.424   +30 56 21.40  .05152 1.0371 166.4 20.7 3.29  72
2022 11 26 23  03 28 14.821   +30 57 51.15  .05173 1.0373 166.4 20.7 3.42  72
2022 11 27 00  03 28 52.927   +30 59 19.41  .05194 1.0375 166.5 20.7 3.54  73
2022 11 27 01  03 29 30.745   +31 00 46.21  .05216 1.0377 166.5 20.7 3.67  73
2022 11 27 02  03 30 08.276   +31 02 11.57  .05237 1.0379 166.6 20.7 3.79  73
2022 11 27 03  03 30 45.524   +31 03 35.52  .05259 1.0381 166.6 20.7 3.92  73
2022 11 27 04  03 31 22.491   +31 04 58.08  .05280 1.0383 166.7 20.7 4.05  74
2022 11 27 05  03 31 59.180   +31 06 19.27  .05302 1.0385 166.7 20.7 4.18  74
2022 11 27 06  03 32 35.593   +31 07 39.12  .05323 1.0388 166.8 20.8 4.31  74
2022 11 27 07  03 33 11.734   +31 08 57.63  .05345 1.0390 166.8 20.8 4.44  74
2022 11 27 08  03 33 47.603   +31 10 14.85  .05366 1.0392 166.9 20.8 4.57  74
2022 11 27 09  03 34 23.204   +31 11 30.78  .05388 1.0394 166.9 20.8 4.71  75
2022 11 27 10  03 34 58.540   +31 12 45.46  .05410 1.0396 167.0 20.8 4.84  75
2022 11 27 11  03 35 33.613   +31 13 58.89  .05431 1.0398 167.0 20.8 4.98  75
2022 11 27 12  03 36 08.424   +31 15 11.10  .05453 1.0400 167.1 20.8 5.11  75